St Charlotte — FWBM — position and weather

sailwx.info

Track history (hours):
 
Tides and Currents Weather Stations Pressure Air Temp Water Temp Dewpoint Dewpoint Depression Visibility Wind Speed Wind Dir Waves Ship Positions

St Charlotte

Last reported at 2014-Oct-23 13:33 UTC. Time now 2014-Oct-25 11:55 UTC.
Position N 37°01' W 009°48'.

Length 129 m; draft 8.3 m.

Type: Tanker. MMSI: 228331700.

Date/timePositionNaut miles runAvg speedWind from/ knotsBaromVisibWave heightAir tempDewpointWater temp
2014-Oct-23 13:33N 37°01' W 009°48'1313.4
2014-Oct-23 12:33N 37°14' W 009°52'1413.5
2014-Oct-23 11:33N 37°27' W 009°55'1313.5
2014-Oct-23 10:33N 37°40' W 009°58'1413.7
2014-Oct-23 09:33N 37°54' W 010°01'1413.7
2014-Oct-23 08:33N 38°07' W 010°04'1413.5
2014-Oct-23 07:33N 38°21' W 010°08'1313.6
2014-Oct-23 06:33N 38°34' W 010°11'1413.5
2014-Oct-23 05:33N 38°47' W 010°13'1414.5
2014-Oct-23 04:33N 39°02' W 010°13'1414.0
2014-Oct-23 03:33N 39°16' W 010°13'1413.7
2014-Oct-23 02:33N 39°30' W 010°14'1413.4
2014-Oct-23 01:32N 39°43' W 010°14'  
2014-Oct-20 16:07N 49°53' W 003°10'10812.4
2014-Oct-20 07:28N 49°36' W 000°25'1112.1
2014-Oct-20 06:34N 49°32' W 000°10'10 9.7
2014-Oct-20 05:33N 49°29' E 000°05'4 4.0
2014-Oct-20 04:34N 49°29' E 000°11'0 0.2
2014-Oct-20 03:32N 49°29' E 000°11'0 0.0
2014-Oct-20 02:29N 49°29' E 000°11'0 0.0
2014-Oct-20 01:29N 49°29' E 000°11'0 0.0
2014-Oct-20 00:32N 49°29' E 000°11'0 0.0
2014-Oct-19 23:23N 49°29' E 000°11'0 0.0
2014-Oct-19 22:29N 49°29' E 000°11'0 0.0
2014-Oct-19 21:29N 49°29' E 000°11'0 0.0
2014-Oct-19 20:29N 49°29' E 000°11'0 0.0
2014-Oct-19 19:32N 49°29' E 000°11'0 0.0
2014-Oct-19 18:29N 49°29' E 000°11'0 0.0
2014-Oct-19 17:33N 49°29' E 000°11'3 2.6
2014-Oct-19 16:33N 49°29' E 000°07'1110.8
2014-Oct-19 15:33N 49°36' W 000°05'11 9.3
2014-Oct-19 14:21N 49°47' W 000°10'8911.0
2014-Oct-19 06:17N 50°55' E 001°18'912.0
2014-Oct-19 05:33N 51°02' E 001°27'1212.3
2014-Oct-19 04:34N 51°11' E 001°41'1212.2
2014-Oct-19 03:33N 51°20' E 001°53'10 9.5
2014-Oct-19 02:33N 51°22' E 002°08'1111.5
2014-Oct-19 01:33N 51°22' E 002°27'1211.9
2014-Oct-19 00:33N 51°22' E 002°46'1111.4
2014-Oct-18 23:33N 51°25' E 003°03'1211.9
2014-Oct-18 22:33N 51°25' E 003°22'1010.5
2014-Oct-18 21:34N 51°26' E 003°39'1010.0
2014-Oct-18 20:33N 51°21' E 003°53'7 6.6
2014-Oct-18 19:34N 51°24' E 004°02'8 8.1
2014-Oct-18 18:33N 51°21' E 004°15'2 1.7
2014-Oct-18 17:33N 51°21' E 004°17'4 3.9
2014-Oct-18 16:32N 51°17' E 004°20'0 0.0
2014-Oct-18 14:12N 51°17' E 004°20'0 0.0
2014-Oct-18 13:30N 51°17' E 004°20'0 0.0
2014-Oct-18 11:12N 51°17' E 004°20'0 0.0
2014-Oct-18 06:30N 51°17' E 004°20'0 0.0
2014-Oct-17 22:24N 51°17' E 004°20'1 1.1
2014-Oct-17 21:33N 51°18' E 004°20'3 3.1
2014-Oct-17 20:34N 51°21' E 004°17'1 0.7
2014-Oct-17 19:34N 51°21' E 004°16'3 3.0
2014-Oct-17 18:33N 51°23' E 004°13'7 7.0
2014-Oct-17 17:33N 51°25' E 004°02'9 9.3
2014-Oct-17 16:34N 51°21' E 003°48'9 9.4
2014-Oct-17 15:33N 51°26' E 003°35'8 8.4
2014-Oct-17 14:33N 51°24' E 003°22'9 7.8
2014-Oct-17 13:25N 51°24' E 003°08'8 8.3
2014-Oct-17 12:26N 51°25' E 002°55'7 8.4
2014-Oct-17 11:33N 51°24' E 002°43'5 5.2
2014-Oct-17 10:30N 51°29' E 002°42'5 5.2
2014-Oct-17 09:33N 51°34' E 002°42'8611.9
2014-Oct-17 02:19N 52°50' E 003°48'1113.4
2014-Oct-17 01:32N 52°58' E 003°59'1413.6
2014-Oct-17 00:33N 53°06' E 004°16'2612.8
2014-Oct-16 22:31N 53°30' E 004°36'2713.2
2014-Oct-16 20:30N 53°55' E 004°49'1313.7
2014-Oct-16 19:32N 54°08' E 004°57'1413.9
2014-Oct-16 18:33N 54°19' E 005°09'26313.9
2014-Oct-15 23:33N 57°44' E 010°06'1615.5
2014-Oct-15 22:33N 57°48' E 010°34'1313.0
2014-Oct-15 21:34N 57°44' E 010°57'1414.1
2014-Oct-15 20:34N 57°34' E 011°15'1413.7
2014-Oct-15 19:33N 57°23' E 011°31'1413.9
2014-Oct-15 18:33N 57°10' E 011°38'1414.1
2014-Oct-15 17:33N 56°56' E 011°47'2814.1
2014-Oct-15 15:33N 56°29' E 012°01'1313.4
2014-Oct-15 14:33N 56°17' E 012°09'1413.6
2014-Oct-15 13:33N 56°09' E 012°29'1111.3
2014-Oct-15 12:34N 56°00' E 012°43'0 0.2
2014-Oct-15 11:32N 56°01' E 012°43'0 0.0
2014-Oct-15 10:32N 56°01' E 012°43'0 0.0
2014-Oct-15 09:32N 56°01' E 012°43'0 0.0
2014-Oct-15 08:32N 56°01' E 012°43'0 0.0
2014-Oct-15 07:31N 56°01' E 012°43'0 0.0
2014-Oct-15 06:32N 56°01' E 012°43'0 0.0
2014-Oct-15 05:32N 56°01' E 012°43'0 0.0
2014-Oct-15 04:26N 56°01' E 012°43'0 0.0
2014-Oct-15 03:32N 56°01' E 012°43'0 0.0
2014-Oct-15 02:32N 56°01' E 012°43'0 0.0
2014-Oct-15 01:29N 56°01' E 012°43'0 0.0
2014-Oct-15 00:32N 56°01' E 012°43'0 0.0
2014-Oct-14 23:32N 56°01' E 012°43'0 0.0
2014-Oct-14 22:32N 56°01' E 012°43'0 0.0
2014-Oct-14 21:32N 56°01' E 012°43'0 0.0
2014-Oct-14 20:29N 56°01' E 012°43'0 0.0
2014-Oct-14 19:31N 56°01' E 012°43'0 0.0
2014-Oct-14 18:32N 56°01' E 012°43'0 0.0
2014-Oct-14 17:32N 56°01' E 012°43'0 0.0
2014-Oct-14 16:31N 56°01' E 012°43'0 0.0
2014-Oct-14 15:28N 56°01' E 012°43'0 0.0
2014-Oct-14 14:31N 56°01' E 012°43'0 0.0
2014-Oct-14 13:32N 56°01' E 012°43'0 0.0
2014-Oct-14 12:26N 56°01' E 012°43'0 0.0
2014-Oct-14 11:31N 56°01' E 012°43'0 0.0
2014-Oct-14 10:31N 56°01' E 012°43'0 0.0
2014-Oct-14 09:32N 56°01' E 012°43'0 0.0
2014-Oct-14 08:32N 56°01' E 012°43'0 0.0
2014-Oct-14 07:32N 56°01' E 012°43'0 0.0
2014-Oct-14 06:32N 56°01' E 012°43'0 0.0
2014-Oct-14 05:32N 56°01' E 012°43'0 0.0
2014-Oct-14 04:31N 56°01' E 012°43'0 0.0
2014-Oct-14 03:32N 56°01' E 012°43'0 0.0
2014-Oct-14 02:31N 56°01' E 012°43'0 0.0
2014-Oct-14 01:32N 56°01' E 012°43'0 0.0
2014-Oct-14 00:32N 56°01' E 012°43'0 0.0
2014-Oct-13 23:32N 56°01' E 012°43'0 0.0
2014-Oct-13 22:31N 56°01' E 012°43'0 0.0
2014-Oct-13 21:32N 56°01' E 012°43'0 0.0
2014-Oct-13 20:31N 56°01' E 012°43'0 0.0
2014-Oct-13 19:32N 56°01' E 012°43'0 0.0
2014-Oct-13 18:29N 56°01' E 012°43'0 0.0
2014-Oct-13 17:32N 56°01' E 012°43'0 0.0
2014-Oct-13 16:32N 56°01' E 012°43'0 0.0
2014-Oct-13 15:31N 56°01' E 012°43'0 0.0
2014-Oct-13 14:32N 56°01' E 012°43'  
Track history (hours):
 
Tides and Currents Weather Stations Pressure Air Temp Water Temp Dewpoint Dewpoint Depression Visibility Wind Speed Wind Dir Waves Ship Positions

St Charlotte

Last reported at 2014-Oct-23 13:33 UTC. Time now 2014-Oct-25 11:55 UTC.
Position N 37°01' W 009°48'.

Length 129 m; draft 8.3 m.

Type: Tanker. MMSI: 228331700.

Date/timePositionNaut miles runAvg speedWind from/ knotsBaromVisibWave heightAir tempDewpointWater temp
2014-Oct-23 13:33N 37°01' W 009°48'1313.4
2014-Oct-23 12:33N 37°14' W 009°52'1413.5
2014-Oct-23 11:33N 37°27' W 009°55'1313.5
2014-Oct-23 10:33N 37°40' W 009°58'1413.7
2014-Oct-23 09:33N 37°54' W 010°01'1413.7
2014-Oct-23 08:33N 38°07' W 010°04'1413.5
2014-Oct-23 07:33N 38°21' W 010°08'1313.6
2014-Oct-23 06:33N 38°34' W 010°11'1413.5
2014-Oct-23 05:33N 38°47' W 010°13'1414.5
2014-Oct-23 04:33N 39°02' W 010°13'1414.0
2014-Oct-23 03:33N 39°16' W 010°13'1413.7
2014-Oct-23 02:33N 39°30' W 010°14'1413.4
2014-Oct-23 01:32N 39°43' W 010°14'  
2014-Oct-20 16:07N 49°53' W 003°10'10812.4
2014-Oct-20 07:28N 49°36' W 000°25'1112.1
2014-Oct-20 06:34N 49°32' W 000°10'10 9.7
2014-Oct-20 05:33N 49°29' E 000°05'4 4.0
2014-Oct-20 04:34N 49°29' E 000°11'0 0.2
2014-Oct-20 03:32N 49°29' E 000°11'0 0.0
2014-Oct-20 02:29N 49°29' E 000°11'0 0.0
2014-Oct-20 01:29N 49°29' E 000°11'0 0.0
2014-Oct-20 00:32N 49°29' E 000°11'0 0.0
2014-Oct-19 23:23N 49°29' E 000°11'0 0.0
2014-Oct-19 22:29N 49°29' E 000°11'0 0.0
2014-Oct-19 21:29N 49°29' E 000°11'0 0.0
2014-Oct-19 20:29N 49°29' E 000°11'0 0.0
2014-Oct-19 19:32N 49°29' E 000°11'0 0.0
2014-Oct-19 18:29N 49°29' E 000°11'0 0.0
2014-Oct-19 17:33N 49°29' E 000°11'3 2.6
2014-Oct-19 16:33N 49°29' E 000°07'1110.8
2014-Oct-19 15:33N 49°36' W 000°05'11 9.3
2014-Oct-19 14:21N 49°47' W 000°10'8911.0
2014-Oct-19 06:17N 50°55' E 001°18'912.0
2014-Oct-19 05:33N 51°02' E 001°27'1212.3
2014-Oct-19 04:34N 51°11' E 001°41'1212.2
2014-Oct-19 03:33N 51°20' E 001°53'10 9.5
2014-Oct-19 02:33N 51°22' E 002°08'1111.5
2014-Oct-19 01:33N 51°22' E 002°27'1211.9
2014-Oct-19 00:33N 51°22' E 002°46'1111.4
2014-Oct-18 23:33N 51°25' E 003°03'1211.9
2014-Oct-18 22:33N 51°25' E 003°22'1010.5
2014-Oct-18 21:34N 51°26' E 003°39'1010.0
2014-Oct-18 20:33N 51°21' E 003°53'7 6.6
2014-Oct-18 19:34N 51°24' E 004°02'8 8.1
2014-Oct-18 18:33N 51°21' E 004°15'2 1.7
2014-Oct-18 17:33N 51°21' E 004°17'4 3.9
2014-Oct-18 16:32N 51°17' E 004°20'0 0.0
2014-Oct-18 14:12N 51°17' E 004°20'0 0.0
2014-Oct-18 13:30N 51°17' E 004°20'0 0.0
2014-Oct-18 11:12N 51°17' E 004°20'0 0.0
2014-Oct-18 06:30N 51°17' E 004°20'0 0.0
2014-Oct-17 22:24N 51°17' E 004°20'1 1.1
2014-Oct-17 21:33N 51°18' E 004°20'3 3.1
2014-Oct-17 20:34N 51°21' E 004°17'1 0.7
2014-Oct-17 19:34N 51°21' E 004°16'3 3.0
2014-Oct-17 18:33N 51°23' E 004°13'7 7.0
2014-Oct-17 17:33N 51°25' E 004°02'9 9.3
2014-Oct-17 16:34N 51°21' E 003°48'9 9.4
2014-Oct-17 15:33N 51°26' E 003°35'8 8.4
2014-Oct-17 14:33N 51°24' E 003°22'9 7.8
2014-Oct-17 13:25N 51°24' E 003°08'8 8.3
2014-Oct-17 12:26N 51°25' E 002°55'7 8.4
2014-Oct-17 11:33N 51°24' E 002°43'5 5.2
2014-Oct-17 10:30N 51°29' E 002°42'5 5.2
2014-Oct-17 09:33N 51°34' E 002°42'8611.9
2014-Oct-17 02:19N 52°50' E 003°48'1113.4
2014-Oct-17 01:32N 52°58' E 003°59'1413.6
2014-Oct-17 00:33N 53°06' E 004°16'2612.8
2014-Oct-16 22:31N 53°30' E 004°36'2713.2
2014-Oct-16 20:30N 53°55' E 004°49'1313.7
2014-Oct-16 19:32N 54°08' E 004°57'1413.9
2014-Oct-16 18:33N 54°19' E 005°09'26313.9
2014-Oct-15 23:33N 57°44' E 010°06'1615.5
2014-Oct-15 22:33N 57°48' E 010°34'1313.0
2014-Oct-15 21:34N 57°44' E 010°57'1414.1
2014-Oct-15 20:34N 57°34' E 011°15'1413.7
2014-Oct-15 19:33N 57°23' E 011°31'1413.9
2014-Oct-15 18:33N 57°10' E 011°38'1414.1
2014-Oct-15 17:33N 56°56' E 011°47'2814.1
2014-Oct-15 15:33N 56°29' E 012°01'1313.4
2014-Oct-15 14:33N 56°17' E 012°09'1413.6
2014-Oct-15 13:33N 56°09' E 012°29'1111.3
2014-Oct-15 12:34N 56°00' E 012°43'0 0.2
2014-Oct-15 11:32N 56°01' E 012°43'0 0.0
2014-Oct-15 10:32N 56°01' E 012°43'0 0.0
2014-Oct-15 09:32N 56°01' E 012°43'0 0.0
2014-Oct-15 08:32N 56°01' E 012°43'0 0.0
2014-Oct-15 07:31N 56°01' E 012°43'0 0.0
2014-Oct-15 06:32N 56°01' E 012°43'0 0.0
2014-Oct-15 05:32N 56°01' E 012°43'0 0.0
2014-Oct-15 04:26N 56°01' E 012°43'0 0.0
2014-Oct-15 03:32N 56°01' E 012°43'0 0.0
2014-Oct-15 02:32N 56°01' E 012°43'0 0.0
2014-Oct-15 01:29N 56°01' E 012°43'0 0.0
2014-Oct-15 00:32N 56°01' E 012°43'0 0.0
2014-Oct-14 23:32N 56°01' E 012°43'0 0.0
2014-Oct-14 22:32N 56°01' E 012°43'0 0.0
2014-Oct-14 21:32N 56°01' E 012°43'0 0.0
2014-Oct-14 20:29N 56°01' E 012°43'0 0.0
2014-Oct-14 19:31N 56°01' E 012°43'0 0.0
2014-Oct-14 18:32N 56°01' E 012°43'0 0.0
2014-Oct-14 17:32N 56°01' E 012°43'0 0.0
2014-Oct-14 16:31N 56°01' E 012°43'0 0.0
2014-Oct-14 15:28N 56°01' E 012°43'0 0.0
2014-Oct-14 14:31N 56°01' E 012°43'0 0.0
2014-Oct-14 13:32N 56°01' E 012°43'0 0.0
2014-Oct-14 12:26N 56°01' E 012°43'0 0.0
2014-Oct-14 11:31N 56°01' E 012°43'0 0.0
2014-Oct-14 10:31N 56°01' E 012°43'0 0.0
2014-Oct-14 09:32N 56°01' E 012°43'0 0.0
2014-Oct-14 08:32N 56°01' E 012°43'0 0.0
2014-Oct-14 07:32N 56°01' E 012°43'0 0.0
2014-Oct-14 06:32N 56°01' E 012°43'0 0.0
2014-Oct-14 05:32N 56°01' E 012°43'0 0.0
2014-Oct-14 04:31N 56°01' E 012°43'0 0.0
2014-Oct-14 03:32N 56°01' E 012°43'0 0.0
2014-Oct-14 02:31N 56°01' E 012°43'0 0.0
2014-Oct-14 01:32N 56°01' E 012°43'0 0.0
2014-Oct-14 00:32N 56°01' E 012°43'0 0.0
2014-Oct-13 23:32N 56°01' E 012°43'0 0.0
2014-Oct-13 22:31N 56°01' E 012°43'0 0.0
2014-Oct-13 21:32N 56°01' E 012°43'0 0.0
2014-Oct-13 20:31N 56°01' E 012°43'0 0.0
2014-Oct-13 19:32N 56°01' E 012°43'0 0.0
2014-Oct-13 18:29N 56°01' E 012°43'0 0.0
2014-Oct-13 17:32N 56°01' E 012°43'0 0.0
2014-Oct-13 16:32N 56°01' E 012°43'0 0.0
2014-Oct-13 15:31N 56°01' E 012°43'0 0.0
2014-Oct-13 14:32N 56°01' E 012°43'  

Dump ship's entire track history